| time (UTC) | temp C | wind direction | speed KPH | gust KPH | rain 1hr cm | rain 24hr cm | rain mn cm | humidity % | barometer mb |
| 20260505153107 | 25 | 77 | 3.2 | 8.0 | 0.00 | 0.00 | 0.00 | 63 | 1018.2 |
| 20260505153001 | 24 | 100 | 1.6 | 8.0 | 0.00 | 0.00 | 0.00 | 62 | 1018.2 |
| 20260505151506 | 23 | 63 | 3.2 | 6.4 | 0.00 | 0.00 | 0.00 | 60 | 1018.2 |
| 20260505124538 | 21 | 75 | 0.0 | 3.2 | 0.00 | 0.00 | 0.00 | 75 | 1017.4 |
| 20260505123053 | 19 | 236 | 0.0 | 1.6 | 0.00 | 0.00 | 0.00 | 86 | 1017.3 |
| 20260505121554 | 18 | 220 | 0.0 | 0.0 | 0.00 | 0.00 | 0.00 | 93 | 1017.1 |
| 20260505120003 | 17 | 180 | 0.0 | 0.0 | 0.00 | 0.00 | 0.00 | 94 | 1017.1 |
| 20260505114509 | 16 | 180 | 0.0 | 0.0 | 0.00 | 0.00 | 0.00 | 94 | 1016.9 |
| 20260505113015 | 16 | 180 | 0.0 | 0.0 | 0.00 | 0.00 | 0.00 | 94 | 1016.9 |
| 20260505111529 | 15 | 180 | 0.0 | 0.0 | 0.00 | 0.00 | 0.00 | 93 | 1016.8 |
| 20260505101554 | 16 | 180 | 0.0 | 0.0 | 0.00 | 0.00 | 0.00 | 91 | 1016.3 |
| 20260505100101 | 16 | 180 | 0.0 | 0.0 | 0.00 | 0.00 | 0.00 | 91 | 1016.2 |
| 20260505094506 | 16 | 180 | 0.0 | 0.0 | 0.00 | 0.00 | 0.00 | 91 | 1016.1 |
| 20260505093012 | 16 | 180 | 0.0 | 0.0 | 0.00 | 0.00 | 0.00 | 91 | 1016.1 |
| 20260505091519 | 16 | 162 | 0.0 | 0.0 | 0.00 | 0.00 | 0.00 | 90 | 1016.0 |
| 20260505090018 | 16 | 162 | 0.0 | 0.0 | 0.00 | 0.00 | 0.00 | 90 | 1016.0 |
| 20260505084533 | 16 | 162 | 0.0 | 0.0 | 0.00 | 0.00 | 0.00 | 89 | 1016.2 |
| 20260505083039 | 16 | 162 | 0.0 | 0.0 | 0.00 | 0.00 | 0.00 | 87 | 1016.0 |
| 20260505081527 | 17 | 162 | 0.0 | 0.0 | 0.00 | 0.00 | 0.00 | 87 | 1015.9 |
| 20260505080043 | 17 | 162 | 0.0 | 0.0 | 0.00 | 0.00 | 0.00 | 85 | 1015.9 |
| 20260505074534 | 18 | 162 | 0.0 | 0.0 | 0.00 | 0.00 | 0.00 | 83 | 1015.9 |
| 20260505073049 | 18 | 162 | 0.0 | 0.0 | 0.00 | 0.00 | 0.00 | 78 | 1016.1 |
| 20260505071548 | 18 | 162 | 0.0 | 1.6 | 0.00 | 0.00 | 0.00 | 77 | 1016.0 |
| 20260505070053 | 18 | 280 | 0.0 | 0.0 | 0.00 | 0.00 | 0.00 | 76 | 1015.9 |
| 20260505064529 | 19 | 35 | 0.0 | 1.6 | 0.00 | 0.00 | 0.00 | 76 | 1016.0 |
| 20260505063040 | 19 | 103 | 0.0 | 0.0 | 0.00 | 0.00 | 0.00 | 74 | 1016.2 |
| 20260505061535 | 20 | 103 | 0.0 | 0.0 | 0.00 | 0.00 | 0.00 | 72 | 1016.2 |
| 20260505060055 | 20 | 104 | 0.0 | 3.2 | 0.00 | 0.00 | 0.00 | 70 | 1016.3 |
| 20260505054543 | 21 | 81 | 0.0 | 3.2 | 0.00 | 0.00 | 0.00 | 68 | 1016.5 |
| 20260505053047 | 20 | 76 | 0.0 | 1.6 | 0.00 | 0.00 | 0.00 | 70 | 1016.7 |
| 20260505051556 | 20 | 84 | 0.0 | 1.6 | 0.00 | 0.00 | 0.00 | 70 | 1017.0 |
| 20260505041515 | 21 | 66 | 0.0 | 3.2 | 0.00 | 0.00 | 0.00 | 69 | 1017.1 |
| 20260505040023 | 21 | 149 | 1.6 | 3.2 | 0.00 | 0.00 | 0.00 | 69 | 1017.2 |
| 20260505034524 | 21 | 76 | 0.0 | 3.2 | 0.00 | 0.00 | 0.00 | 67 | 1017.3 |
| 20260505033030 | 21 | 83 | 1.6 | 4.8 | 0.00 | 0.00 | 0.00 | 66 | 1017.4 |
| 20260505031536 | 21 | 93 | 1.6 | 4.8 | 0.00 | 0.00 | 0.00 | 67 | 1017.5 |
| 20260505030022 | 21 | 74 | 1.6 | 6.4 | 0.00 | 0.00 | 0.00 | 67 | 1017.6 |
| 20260505024527 | 21 | 78 | 1.6 | 4.8 | 0.00 | 0.00 | 0.00 | 66 | 1017.6 |
| 20260505023037 | 21 | 67 | 1.6 | 6.4 | 0.00 | 0.00 | 0.00 | 67 | 1017.7 |
| 20260505021544 | 21 | 78 | 3.2 | 6.4 | 0.00 | 0.00 | 0.00 | 67 | 1017.6 |
| 20260505020042 | 21 | 72 | 1.6 | 4.8 | 0.00 | 0.00 | 0.00 | 67 | 1017.7 |
| 20260505014603 | 21 | 66 | 1.6 | 4.8 | 0.00 | 0.00 | 0.00 | 67 | 1017.5 |
| 20260505013054 | 21 | 68 | 3.2 | 6.4 | 0.00 | 0.00 | 0.00 | 66 | 1017.6 |
| 20260505011559 | 21 | 58 | 1.6 | 8.0 | 0.00 | 0.00 | 0.00 | 66 | 1017.3 |
| 20260505010006 | 21 | 89 | 1.6 | 4.8 | 0.00 | 0.00 | 0.00 | 67 | 1017.3 |
| 20260505004511 | 21 | 97 | 1.6 | 4.8 | 0.00 | 0.00 | 0.00 | 66 | 1017.3 |
| 20260505003002 | 21 | 65 | 1.6 | 4.8 | 0.00 | 0.00 | 0.00 | 65 | 1017.1 |
| 20260505001508 | 21 | 87 | 1.6 | 6.4 | 0.00 | 0.00 | 0.00 | 65 | 1016.9 |
| 20260505000018 | 21 | 94 | 1.6 | 4.8 | 0.00 | 0.00 | 0.00 | 64 | 1016.8 |
| 20260504234527 | 21 | 80 | 3.2 | 4.8 | 0.00 | 0.00 | 0.00 | 63 | 1016.5 |
| 20260504233034 | 22 | 77 | 1.6 | 4.8 | 0.00 | 0.00 | 0.00 | 63 | 1016.4 |
| 20260504231530 | 22 | 72 | 1.6 | 8.0 | 0.00 | 0.00 | 0.00 | 62 | 1016.4 |
| 20260504230036 | 22 | 90 | 1.6 | 6.4 | 0.00 | 0.00 | 0.00 | 60 | 1016.3 |
| 20260504224540 | 23 | 79 | 3.2 | 6.4 | 0.00 | 0.00 | 0.00 | 59 | 1016.6 |
| 20260504223059 | 23 | 67 | 1.6 | 6.4 | 0.00 | 0.00 | 0.00 | 58 | 1016.7 |
| 20260504221554 | 23 | 56 | 1.6 | 8.0 | 0.00 | 0.00 | 0.00 | 59 | 1016.7 |
| 20260504220006 | 23 | 95 | 3.2 | 6.4 | 0.00 | 0.00 | 0.00 | 57 | 1016.7 |
| 20260504214514 | 24 | 95 | 3.2 | 8.0 | 0.00 | 0.00 | 0.00 | 57 | 1016.8 |
| 20260504213025 | 24 | 91 | 3.2 | 8.0 | 0.00 | 0.00 | 0.00 | 56 | 1016.8 |
| 20260504211529 | 24 | 48 | 3.2 | 8.0 | 0.00 | 0.00 | 0.00 | 55 | 1016.9 |
| 20260504210026 | 25 | 63 | 4.8 | 8.0 | 0.00 | 0.00 | 0.00 | 56 | 1017.0 |
| 20260504204534 | 25 | 74 | 3.2 | 8.0 | 0.00 | 0.00 | 0.00 | 57 | 1017.0 |
| 20260504203043 | 25 | 120 | 3.2 | 9.7 | 0.00 | 0.00 | 0.00 | 55 | 1017.0 |
| 20260504201530 | 25 | 44 | 3.2 | 9.7 | 0.00 | 0.00 | 0.00 | 58 | 1017.1 |
| 20260504200036 | 25 | 81 | 3.2 | 9.7 | 0.00 | 0.00 | 0.00 | 58 | 1017.1 |
| 20260504194548 | 25 | 50 | 6.4 | 12.9 | 0.00 | 0.00 | 0.00 | 56 | 1017.3 |
| 20260504193105 | 25 | 65 | 4.8 | 9.7 | 0.00 | 0.00 | 0.00 | 58 | 1017.4 |
| 20260504191504 | 25 | 80 | 4.8 | 9.7 | 0.00 | 0.00 | 0.00 | 57 | 1017.5 |
| 20260504190012 | 25 | 230 | 3.2 | 9.7 | 0.00 | 0.00 | 0.00 | 57 | 1017.7 |
| 20260504184533 | 25 | 64 | 4.8 | 11.3 | 0.00 | 0.00 | 0.00 | 54 | 1018.1 |
| 20260504183030 | 25 | 78 | 4.8 | 8.0 | 0.00 | 0.00 | 0.00 | 56 | 1018.3 |
| 20260504181536 | 25 | 63 | 4.8 | 9.7 | 0.00 | 0.00 | 0.00 | 57 | 1018.3 |
| 20260504180044 | 25 | 85 | 3.2 | 9.7 | 0.00 | 0.00 | 0.00 | 56 | 1018.4 |
| 20260504174546 | 25 | 70 | 3.2 | 8.0 | 0.00 | 0.00 | 0.00 | 57 | 1018.5 |
| 20260504173051 | 25 | 40 | 6.4 | 11.3 | 0.00 | 0.00 | 0.00 | 55 | 1018.7 |
| 20260504171537 | 25 | 101 | 3.2 | 8.0 | 0.00 | 0.00 | 0.00 | 56 | 1018.7 |